| time (UTC) | temp F | wind direction | speed knots | gust knots | rain 1hr in | rain 24hr in | rain mn in | humidity % | barometer mb |
| 20260905072140 | 53 | 151 | 0.0 | 0.0 | 0.00 | 0.00 | 0.00 | 91 | 1019.3 |
| 20260905071637 | 53 | 150 | 0.0 | 0.0 | 0.00 | 0.00 | 0.00 | 91 | 1019.3 |
| 20260905071132 | 54 | 149 | 0.0 | 0.0 | 0.00 | 0.00 | 0.00 | 91 | 1019.0 |
| 20260905070627 | 54 | 145 | 0.0 | 0.0 | 0.00 | 0.00 | 0.00 | 90 | 1018.8 |
| 20260905070123 | 54 | 152 | 0.0 | 0.0 | 0.00 | 0.00 | 0.00 | 90 | 1019.2 |
| 20260905065621 | 54 | 150 | 0.0 | 0.0 | 0.00 | 0.01 | 0.01 | 90 | 1019.0 |
| 20260905065116 | 54 | 147 | 0.0 | 0.0 | 0.00 | 0.01 | 0.01 | 90 | 1018.9 |
| 20260905064611 | 54 | 147 | 0.0 | 0.0 | 0.00 | 0.01 | 0.01 | 90 | 1019.0 |
| 20260905064106 | 54 | 147 | 0.0 | 0.0 | 0.00 | 0.01 | 0.01 | 90 | 1019.0 |
| 20260905063605 | 55 | 151 | 0.0 | 0.0 | 0.00 | 0.01 | 0.01 | 89 | 1018.9 |
| 20260905063101 | 55 | 149 | 0.0 | 0.0 | 0.00 | 0.01 | 0.01 | 89 | 1018.9 |
| 20260905062557 | 55 | 149 | 0.0 | 0.0 | 0.00 | 0.01 | 0.01 | 88 | 1018.7 |
| 20260905062050 | 55 | 160 | 0.0 | 0.0 | 0.00 | 0.01 | 0.01 | 88 | 1018.8 |
| 20260905061545 | 55 | 146 | 0.0 | 0.0 | 0.00 | 0.01 | 0.01 | 87 | 1018.5 |
| 20260905061044 | 55 | 146 | 0.0 | 0.0 | 0.00 | 0.01 | 0.01 | 87 | 1018.7 |
| 20260905060541 | 56 | 142 | 0.0 | 0.0 | 0.00 | 0.01 | 0.01 | 87 | 1018.4 |
| 20260905060036 | 56 | 145 | 0.0 | 0.0 | 0.00 | 0.01 | 0.01 | 86 | 1018.6 |
| 20260905055535 | 56 | 142 | 0.0 | 0.0 | 0.00 | 0.01 | 0.01 | 85 | 1018.3 |
| 20260905055030 | 57 | 139 | 0.0 | 0.0 | 0.00 | 0.01 | 0.01 | 85 | 1018.4 |
| 20260905054526 | 57 | 142 | 0.0 | 0.0 | 0.00 | 0.01 | 0.01 | 84 | 1018.4 |
| 20260905054021 | 57 | 139 | 0.0 | 0.0 | 0.00 | 0.01 | 0.01 | 84 | 1018.4 |
| 20260905053515 | 57 | 131 | 0.0 | 0.0 | 0.00 | 0.01 | 0.01 | 84 | 1018.4 |
| 20260905053011 | 57 | 124 | 0.0 | 0.0 | 0.00 | 0.01 | 0.01 | 84 | 1018.4 |
| 20260905052510 | 57 | 132 | 0.0 | 0.0 | 0.00 | 0.01 | 0.01 | 84 | 1018.4 |
| 20260905052004 | 57 | 120 | 0.0 | 0.0 | 0.00 | 0.01 | 0.01 | 85 | 1018.6 |
| 20260905051459 | 57 | 150 | 0.0 | 0.0 | 0.00 | 0.01 | 0.01 | 85 | 1018.5 |
| 20260905050957 | 57 | 147 | 0.0 | 0.0 | 0.00 | 0.01 | 0.01 | 84 | 1018.5 |
| 20260905050452 | 57 | 158 | 0.0 | 0.0 | 0.00 | 0.01 | 0.01 | 84 | 1018.5 |
| 20260905045948 | 57 | 153 | 0.0 | 0.0 | 0.00 | 0.01 | 0.01 | 83 | 1018.5 |
| 20260905045443 | 58 | 143 | 0.0 | 0.0 | 0.00 | 0.01 | 0.01 | 83 | 1018.6 |
| 20260905044938 | 58 | 133 | 0.0 | 0.0 | 0.00 | 0.01 | 0.01 | 83 | 1018.3 |
| 20260905044433 | 57 | 134 | 0.0 | 0.0 | 0.00 | 0.01 | 0.01 | 83 | 1018.5 |
| 20260905043932 | 57 | 136 | 0.0 | 0.0 | 0.00 | 0.01 | 0.01 | 82 | 1018.6 |
| 20260905043431 | 58 | 151 | 0.0 | 0.0 | 0.00 | 0.01 | 0.01 | 82 | 1018.7 |
| 20260905042926 | 58 | 151 | 0.0 | 0.0 | 0.00 | 0.01 | 0.01 | 82 | 1018.7 |
| 20260905042421 | 58 | 151 | 0.0 | 0.0 | 0.00 | 0.01 | 0.01 | 82 | 1018.7 |
| 20260905041916 | 58 | 152 | 0.0 | 0.0 | 0.00 | 0.01 | 0.01 | 81 | 1018.6 |
| 20260905041412 | 58 | 150 | 0.0 | 0.0 | 0.00 | 0.01 | 0.01 | 81 | 1018.4 |
| 20260905040907 | 58 | 149 | 0.0 | 0.0 | 0.00 | 0.01 | 0.01 | 81 | 1018.4 |
| 20260905040406 | 58 | 134 | 0.0 | 0.0 | 0.00 | 0.01 | 0.01 | 80 | 1018.4 |
| 20260905035906 | 58 | 137 | 0.0 | 0.0 | 0.00 | 0.01 | 0.01 | 80 | 1018.5 |
| 20260905035401 | 58 | 145 | 0.0 | 0.0 | 0.00 | 0.01 | 0.01 | 80 | 1018.5 |
| 20260905034858 | 59 | 143 | 0.0 | 0.0 | 0.00 | 0.01 | 0.01 | 79 | 1018.5 |
| 20260905034353 | 59 | 146 | 0.0 | 0.0 | 0.00 | 0.01 | 0.01 | 78 | 1018.3 |
| 20260905033851 | 59 | 120 | 0.0 | 0.0 | 0.00 | 0.01 | 0.01 | 77 | 1018.2 |
| 20260905033347 | 59 | 130 | 0.0 | 0.0 | 0.00 | 0.01 | 0.01 | 77 | 1018.5 |
| 20260905032846 | 59 | 125 | 0.0 | 0.0 | 0.00 | 0.01 | 0.01 | 78 | 1018.2 |
| 20260905032342 | 59 | 132 | 0.0 | 0.0 | 0.00 | 0.01 | 0.01 | 77 | 1018.2 |
| 20260905031837 | 59 | 123 | 0.0 | 0.0 | 0.00 | 0.01 | 0.01 | 76 | 1017.8 |
| 20260905031333 | 59 | 138 | 0.0 | 0.0 | 0.00 | 0.01 | 0.01 | 75 | 1018.1 |
| 20260905030828 | 60 | 143 | 0.0 | 0.0 | 0.00 | 0.01 | 0.01 | 75 | 1018.1 |
| 20260905030324 | 60 | 149 | 0.0 | 0.0 | 0.00 | 0.01 | 0.01 | 75 | 1018.1 |
| 20260905025823 | 60 | 146 | 0.0 | 0.0 | 0.00 | 0.01 | 0.01 | 74 | 1017.9 |
| 20260905025318 | 60 | 140 | 0.0 | 0.0 | 0.00 | 0.01 | 0.01 | 74 | 1017.9 |
| 20260905024814 | 60 | 149 | 0.0 | 0.0 | 0.00 | 0.01 | 0.01 | 74 | 1018.1 |
| 20260905024309 | 61 | 143 | 0.0 | 0.0 | 0.00 | 0.01 | 0.01 | 72 | 1017.9 |
| 20260905023805 | 61 | 145 | 0.0 | 0.0 | 0.00 | 0.01 | 0.01 | 73 | 1017.7 |
| 20260905023300 | 62 | 149 | 0.0 | 0.0 | 0.00 | 0.01 | 0.01 | 69 | 1017.8 |
| 20260905022759 | 62 | 136 | 0.0 | 0.0 | 0.00 | 0.01 | 0.01 | 69 | 1017.8 |
| 20260905022254 | 62 | 126 | 0.0 | 0.0 | 0.00 | 0.01 | 0.01 | 67 | 1017.8 |
| 20260905021754 | 63 | 140 | 0.0 | 0.0 | 0.00 | 0.01 | 0.01 | 66 | 1017.8 |
| 20260905021250 | 63 | 132 | 0.0 | 0.0 | 0.00 | 0.01 | 0.01 | 65 | 1017.9 |
| 20260905020749 | 64 | 133 | 0.0 | 0.0 | 0.00 | 0.01 | 0.01 | 65 | 1018.0 |
| 20260905020245 | 64 | 142 | 1.7 | 2.6 | 0.00 | 0.01 | 0.01 | 65 | 1017.8 |
| 20260905015743 | 65 | 128 | 1.7 | 4.3 | 0.00 | 0.01 | 0.01 | 61 | 1018.0 |
| 20260905015238 | 65 | 161 | 0.0 | 0.0 | 0.00 | 0.01 | 0.01 | 62 | 1017.9 |
| 20260905014737 | 65 | 164 | 0.0 | 0.9 | 0.00 | 0.01 | 0.01 | 60 | 1017.9 |
| 20260905014233 | 66 | 150 | 0.9 | 2.6 | 0.00 | 0.01 | 0.01 | 60 | 1017.9 |
| 20260905013728 | 66 | 119 | 0.9 | 1.7 | 0.00 | 0.01 | 0.01 | 61 | 1017.7 |
| 20260905013224 | 66 | 147 | 0.0 | 0.0 | 0.00 | 0.01 | 0.01 | 58 | 1017.7 |
| 20260905012719 | 67 | 135 | 0.0 | 0.9 | 0.00 | 0.01 | 0.01 | 56 | 1017.5 |
| 20260905012215 | 67 | 153 | 0.0 | 1.7 | 0.00 | 0.01 | 0.01 | 55 | 1017.4 |
| 20260905011712 | 68 | 149 | 0.0 | 0.0 | 0.00 | 0.01 | 0.01 | 57 | 1017.3 |
| 20260905011208 | 68 | 147 | 0.0 | 0.9 | 0.00 | 0.01 | 0.01 | 57 | 1017.3 |
| 20260905010707 | 69 | 158 | 0.9 | 2.6 | 0.00 | 0.01 | 0.01 | 52 | 1017.3 |
| 20260905010203 | 69 | 160 | 0.9 | 2.6 | 0.00 | 0.01 | 0.01 | 53 | 1017.0 |
| 20260905005659 | 70 | 156 | 2.6 | 5.2 | 0.00 | 0.01 | 0.01 | 52 | 1017.1 |
| 20260905005155 | 70 | 173 | 0.9 | 1.7 | 0.00 | 0.01 | 0.01 | 52 | 1016.9 |
| 20260905004649 | 71 | 97 | 2.6 | 4.3 | 0.00 | 0.01 | 0.01 | 52 | 1017.0 |
| 20260905004144 | 70 | 155 | 0.0 | 0.0 | 0.00 | 0.01 | 0.01 | 52 | 1016.9 |
| 20260905003639 | 70 | 96 | 1.7 | 6.1 | 0.00 | 0.01 | 0.01 | 52 | 1017.1 |
| 20260905003135 | 70 | 120 | 0.0 | 2.6 | 0.00 | 0.01 | 0.01 | 52 | 1017.0 |
| 20260905002631 | 70 | 198 | 2.6 | 5.2 | 0.00 | 0.01 | 0.01 | 52 | 1017.1 |
| 20260905002125 | 70 | 105 | 0.9 | 0.9 | 0.00 | 0.01 | 0.01 | 56 | 1016.8 |
| 20260905001621 | 70 | 138 | 2.6 | 5.2 | 0.00 | 0.01 | 0.01 | 55 | 1016.9 |
| 20260905001120 | 70 | 163 | 0.9 | 6.1 | 0.00 | 0.01 | 0.01 | 52 | 1016.7 |
| 20260905000616 | 71 | 149 | 2.6 | 2.6 | 0.00 | 0.01 | 0.01 | 48 | 1016.9 |
| 20260905000112 | 71 | 173 | 0.0 | 1.7 | 0.00 | 0.01 | 0.01 | 46 | 1016.7 |
| 20260904235611 | 71 | 190 | 1.7 | 1.7 | 0.00 | 0.01 | 0.01 | 47 | 1016.5 |
| 20260904235111 | 71 | 174 | 0.9 | 1.7 | 0.00 | 0.01 | 0.01 | 44 | 1016.7 |
| 20260904234606 | 70 | 174 | 1.7 | 2.6 | 0.00 | 0.01 | 0.01 | 47 | 1016.7 |
| 20260904234102 | 71 | 182 | 1.7 | 4.3 | 0.00 | 0.01 | 0.01 | 46 | 1016.7 |
| 20260904233602 | 73 | 195 | 1.7 | 5.2 | 0.00 | 0.01 | 0.01 | 45 | 1016.8 |
| 20260904233058 | 73 | 199 | 1.7 | 1.7 | 0.00 | 0.01 | 0.01 | 43 | 1016.8 |
| 20260904232554 | 73 | 113 | 0.0 | 2.6 | 0.00 | 0.01 | 0.01 | 44 | 1016.8 |
| 20260904232051 | 72 | 163 | 0.0 | 4.3 | 0.00 | 0.01 | 0.01 | 45 | 1016.7 |
| 20260904231546 | 72 | 116 | 2.6 | 2.6 | 0.00 | 0.01 | 0.01 | 46 | 1016.6 |
| 20260904231041 | 72 | 226 | 2.6 | 2.6 | 0.00 | 0.01 | 0.01 | 49 | 1016.5 |
| 20260904230540 | 70 | 223 | 0.9 | 2.6 | 0.00 | 0.01 | 0.01 | 51 | 1016.6 |
| 20260904230036 | 71 | 187 | 0.9 | 4.3 | 0.00 | 0.01 | 0.01 | 50 | 1016.6 |
| 20260904225533 | 71 | 201 | 0.9 | 1.7 | 0.00 | 0.01 | 0.01 | 51 | 1016.6 |
| 20260904225033 | 71 | 241 | 4.3 | 6.1 | 0.00 | 0.01 | 0.01 | 52 | 1016.5 |
| 20260904224529 | 71 | 207 | 1.7 | 6.1 | 0.00 | 0.01 | 0.01 | 51 | 1016.4 |
| 20260904224028 | 71 | 208 | 2.6 | 6.1 | 0.00 | 0.01 | 0.01 | 49 | 1016.5 |
| 20260904223527 | 72 | 104 | 2.6 | 2.6 | 0.00 | 0.01 | 0.01 | 51 | 1016.5 |
| 20260904223023 | 71 | 188 | 2.6 | 4.3 | 0.00 | 0.01 | 0.01 | 51 | 1016.3 |
| 20260904222518 | 71 | 209 | 1.7 | 4.3 | 0.00 | 0.01 | 0.01 | 52 | 1016.4 |
| 20260904222014 | 71 | 175 | 2.6 | 4.3 | 0.00 | 0.01 | 0.01 | 52 | 1016.3 |
| 20260904221509 | 72 | 289 | 2.6 | 4.3 | 0.00 | 0.01 | 0.01 | 53 | 1016.5 |
| 20260904221009 | 71 | 182 | 1.7 | 4.3 | 0.00 | 0.01 | 0.01 | 53 | 1016.3 |
| 20260904220508 | 71 | 158 | 1.7 | 2.6 | 0.00 | 0.01 | 0.01 | 53 | 1016.4 |
| 20260904220004 | 71 | 173 | 0.9 | 2.6 | 0.00 | 0.01 | 0.01 | 53 | 1016.3 |
| 20260904215459 | 71 | 266 | 3.5 | 4.3 | 0.00 | 0.01 | 0.01 | 54 | 1016.2 |
| 20260904214954 | 70 | 47 | 1.7 | 4.3 | 0.00 | 0.01 | 0.01 | 55 | 1016.3 |
| 20260904214450 | 70 | 55 | 1.7 | 5.2 | 0.00 | 0.01 | 0.01 | 56 | 1016.3 |
| 20260904213945 | 68 | 69 | 0.9 | 2.6 | 0.00 | 0.01 | 0.01 | 58 | 1016.2 |
| 20260904213438 | 69 | 198 | 2.6 | 6.1 | 0.00 | 0.01 | 0.01 | 58 | 1016.2 |
| 20260904212935 | 69 | 86 | 0.9 | 5.2 | 0.00 | 0.01 | 0.01 | 59 | 1016.1 |
| 20260904212434 | 68 | 168 | 2.6 | 5.2 | 0.00 | 0.01 | 0.01 | 59 | 1016.3 |
| 20260904211930 | 68 | 218 | 2.6 | 5.2 | 0.00 | 0.01 | 0.01 | 60 | 1016.1 |
| 20260904211429 | 68 | 249 | 2.6 | 4.3 | 0.00 | 0.01 | 0.01 | 61 | 1016.0 |
| 20260904210925 | 68 | 227 | 3.5 | 6.1 | 0.00 | 0.01 | 0.01 | 61 | 1016.1 |
| 20260904210424 | 68 | 135 | 1.7 | 7.0 | 0.00 | 0.01 | 0.01 | 61 | 1016.2 |
| 20260904205920 | 68 | 254 | 2.6 | 4.3 | 0.00 | 0.01 | 0.01 | 61 | 1016.2 |
| 20260904205415 | 68 | 227 | 3.5 | 7.0 | 0.00 | 0.01 | 0.01 | 61 | 1016.2 |
| 20260904204912 | 67 | 211 | 3.5 | 5.2 | 0.00 | 0.01 | 0.01 | 65 | 1016.3 |
| 20260904204408 | 67 | 223 | 3.5 | 5.2 | 0.00 | 0.01 | 0.01 | 64 | 1016.3 |
| 20260904203904 | 67 | 227 | 3.5 | 6.1 | 0.00 | 0.01 | 0.01 | 63 | 1016.1 |
| 20260904203400 | 67 | 188 | 2.6 | 4.3 | 0.00 | 0.01 | 0.01 | 65 | 1016.2 |
| 20260904202856 | 66 | 186 | 1.7 | 4.3 | 0.00 | 0.01 | 0.01 | 66 | 1016.2 |
| 20260904202352 | 67 | 195 | 4.3 | 7.0 | 0.00 | 0.01 | 0.01 | 63 | 1016.3 |
| 20260904201847 | 67 | 215 | 2.6 | 5.2 | 0.00 | 0.01 | 0.01 | 63 | 1016.2 |
| 20260904201342 | 66 | 160 | 0.0 | 5.2 | 0.00 | 0.01 | 0.01 | 66 | 1016.4 |
| 20260904200837 | 66 | 200 | 2.6 | 4.3 | 0.00 | 0.01 | 0.01 | 67 | 1016.3 |
| 20260904200335 | 65 | 213 | 2.6 | 4.3 | 0.00 | 0.01 | 0.01 | 68 | 1016.5 |
| 20260904195830 | 64 | 206 | 2.6 | 4.3 | 0.00 | 0.01 | 0.01 | 68 | 1016.5 |
| 20260904195329 | 65 | 215 | 2.6 | 2.6 | 0.00 | 0.01 | 0.01 | 69 | 1016.5 |
| 20260904194829 | 65 | 165 | 2.6 | 5.2 | 0.00 | 0.01 | 0.01 | 69 | 1016.4 |
| 20260904194328 | 65 | 210 | 2.6 | 6.1 | 0.00 | 0.01 | 0.01 | 68 | 1016.3 |
| 20260904193823 | 65 | 215 | 1.7 | 6.1 | 0.00 | 0.01 | 0.01 | 69 | 1016.4 |
| 20260904193319 | 64 | 224 | 2.6 | 5.2 | 0.00 | 0.01 | 0.01 | 71 | 1016.3 |
| 20260904192814 | 64 | 230 | 3.5 | 5.2 | 0.00 | 0.01 | 0.01 | 71 | 1016.3 |
| 20260904192309 | 64 | 169 | 5.2 | 7.0 | 0.00 | 0.01 | 0.01 | 72 | 1016.3 |
| 20260904191806 | 64 | 224 | 4.3 | 5.2 | 0.00 | 0.01 | 0.01 | 72 | 1016.5 |
| 20260904191302 | 63 | 178 | 3.5 | 5.2 | 0.00 | 0.01 | 0.01 | 74 | 1016.3 |
| 20260904190758 | 64 | 250 | 4.3 | 5.2 | 0.00 | 0.01 | 0.01 | 73 | 1016.3 |
| 20260904190254 | 64 | 225 | 4.3 | 8.7 | 0.00 | 0.01 | 0.01 | 73 | 1016.7 |
| 20260904185750 | 63 | 200 | 1.7 | 4.3 | 0.00 | 0.01 | 0.01 | 74 | 1016.6 |
| 20260904185245 | 64 | 180 | 3.5 | 6.1 | 0.00 | 0.01 | 0.01 | 73 | 1016.4 |
| 20260904184743 | 63 | 162 | 0.9 | 4.3 | 0.00 | 0.01 | 0.01 | 74 | 1016.6 |
| 20260904184240 | 63 | 178 | 3.5 | 6.1 | 0.00 | 0.01 | 0.01 | 74 | 1016.4 |
| 20260904183735 | 63 | 188 | 2.6 | 8.7 | 0.00 | 0.01 | 0.01 | 73 | 1016.5 |
| 20260904183230 | 62 | 136 | 3.5 | 6.1 | 0.00 | 0.01 | 0.01 | 75 | 1016.5 |
| 20260904182725 | 62 | 147 | 1.7 | 6.1 | 0.00 | 0.01 | 0.01 | 77 | 1016.5 |
| 20260904182220 | 62 | 196 | 2.6 | 6.1 | 0.00 | 0.01 | 0.01 | 77 | 1016.6 |
| 20260904181716 | 62 | 215 | 4.3 | 4.3 | 0.00 | 0.01 | 0.01 | 76 | 1016.6 |
| 20260904181216 | 62 | 199 | 6.1 | 8.7 | 0.00 | 0.01 | 0.01 | 77 | 1016.7 |
| 20260904180712 | 64 | 158 | 3.5 | 5.2 | 0.00 | 0.01 | 0.01 | 74 | 1016.6 |
| 20260904180207 | 63 | 186 | 2.6 | 7.0 | 0.00 | 0.01 | 0.01 | 77 | 1016.6 |
| 20260904175706 | 63 | 88 | 0.9 | 4.3 | 0.00 | 0.01 | 0.01 | 77 | 1016.7 |
| 20260904175205 | 63 | 160 | 2.6 | 4.3 | 0.00 | 0.01 | 0.01 | 78 | 1016.5 |
| 20260904174705 | 62 | 208 | 2.6 | 4.3 | 0.00 | 0.01 | 0.01 | 79 | 1016.5 |
| 20260904174201 | 62 | 269 | 4.3 | 6.1 | 0.00 | 0.01 | 0.01 | 80 | 1016.5 |
| 20260904173656 | 61 | 225 | 2.6 | 4.3 | 0.00 | 0.01 | 0.01 | 82 | 1016.6 |
| 20260904173151 | 61 | 169 | 1.7 | 2.6 | 0.00 | 0.01 | 0.01 | 82 | 1016.7 |
| 20260904172648 | 61 | 158 | 0.0 | 2.6 | 0.00 | 0.01 | 0.01 | 83 | 1016.4 |
| 20260904172147 | 60 | 158 | 0.0 | 1.7 | 0.00 | 0.01 | 0.01 | 86 | 1016.6 |
| 20260904171642 | 60 | 203 | 2.6 | 2.6 | 0.00 | 0.01 | 0.01 | 85 | 1016.6 |
| 20260904171137 | 60 | 195 | 3.5 | 4.3 | 0.00 | 0.01 | 0.01 | 85 | 1016.4 |
| 20260904170633 | 60 | 157 | 0.9 | 4.3 | 0.00 | 0.01 | 0.01 | 86 | 1016.6 |
| 20260904170129 | 59 | 158 | 0.9 | 2.6 | 0.00 | 0.01 | 0.01 | 88 | 1016.8 |
| 20260904165628 | 59 | 147 | 1.7 | 2.6 | 0.00 | 0.01 | 0.01 | 89 | 1016.5 |
| 20260904165127 | 59 | 208 | 1.7 | 1.7 | 0.00 | 0.01 | 0.01 | 88 | 1016.7 |
| 20260904164627 | 59 | 160 | 0.9 | 1.7 | 0.00 | 0.01 | 0.01 | 89 | 1016.5 |
| 20260904164123 | 59 | 188 | 0.9 | 2.6 | 0.00 | 0.01 | 0.01 | 89 | 1016.6 |
| 20260904163619 | 59 | 169 | 0.9 | 4.3 | 0.00 | 0.01 | 0.01 | 91 | 1016.4 |
| 20260904163114 | 59 | 176 | 1.7 | 1.7 | 0.00 | 0.01 | 0.01 | 91 | 1016.5 |
| 20260904162613 | 59 | 162 | 1.7 | 2.6 | 0.00 | 0.01 | 0.01 | 93 | 1016.4 |
| 20260904162109 | 59 | 168 | 0.9 | 1.7 | 0.00 | 0.01 | 0.01 | 94 | 1016.2 |
| 20260904161604 | 58 | 175 | 0.0 | 0.0 | 0.00 | 0.01 | 0.01 | 96 | 1016.4 |
| 20260904161059 | 57 | 159 | 0.0 | 0.0 | 0.00 | 0.01 | 0.01 | 97 | 1016.3 |
| 20260904160554 | 57 | 166 | 0.0 | 0.0 | 0.00 | 0.01 | 0.01 | 97 | 1016.2 |
| 20260904160050 | 56 | 153 | 0.0 | 0.0 | 0.00 | 0.01 | 0.01 | 97 | 1016.4 |
| 20260904155549 | 56 | 136 | 0.0 | 0.9 | 0.00 | 0.01 | 0.01 | 97 | 1016.3 |
| 20260904155044 | 57 | 113 | 0.0 | 0.0 | 0.00 | 0.01 | 0.01 | 97 | 1016.2 |
| 20260904154537 | 56 | 135 | 0.0 | 0.0 | 0.00 | 0.01 | 0.01 | 98 | 1016.1 |
| 20260904154032 | 56 | 133 | 0.0 | 0.0 | 0.00 | 0.01 | 0.01 | 97 | 1016.3 |
| 20260904153532 | 56 | 158 | 0.0 | 0.0 | 0.00 | 0.01 | 0.01 | 97 | 1016.3 |
| 20260904153029 | 56 | 156 | 0.0 | 0.0 | 0.00 | 0.01 | 0.01 | 98 | 1016.2 |
| 20260904152524 | 56 | 154 | 0.0 | 0.0 | 0.00 | 0.01 | 0.01 | 98 | 1016.0 |
| 20260904152019 | 56 | 153 | 0.0 | 0.0 | 0.00 | 0.01 | 0.01 | 98 | 1016.0 |
| 20260904151514 | 55 | 156 | 0.0 | 0.0 | 0.00 | 0.01 | 0.01 | 98 | 1016.0 |
| 20260904151008 | 55 | 154 | 0.0 | 0.0 | 0.00 | 0.01 | 0.01 | 98 | 1015.9 |
| 20260904150503 | 55 | 157 | 0.0 | 0.0 | 0.00 | 0.01 | 0.01 | 98 | 1015.7 |
| 20260904150002 | 54 | 154 | 0.0 | 0.0 | 0.00 | 0.01 | 0.01 | 98 | 1015.6 |
| 20260904145457 | 54 | 155 | 0.0 | 0.0 | 0.00 | 0.01 | 0.01 | 98 | 1015.9 |
| 20260904144953 | 54 | 154 | 0.0 | 0.0 | 0.00 | 0.01 | 0.01 | 98 | 1015.7 |
| 20260904144448 | 54 | 154 | 0.0 | 0.0 | 0.00 | 0.01 | 0.01 | 98 | 1015.7 |
| 20260904143944 | 54 | 154 | 0.0 | 0.0 | 0.00 | 0.01 | 0.01 | 98 | 1015.5 |
| 20260904143440 | 54 | 153 | 0.0 | 0.0 | 0.00 | 0.01 | 0.01 | 98 | 1015.6 |
| 20260904142937 | 54 | 152 | 0.0 | 0.0 | 0.00 | 0.01 | 0.01 | 98 | 1015.6 |
| 20260904142433 | 53 | 146 | 0.0 | 0.0 | 0.00 | 0.01 | 0.01 | 98 | 1015.7 |
| 20260904141927 | 53 | 148 | 0.0 | 0.0 | 0.00 | 0.01 | 0.01 | 98 | 1015.7 |
| 20260904141422 | 53 | 147 | 0.0 | 0.0 | 0.00 | 0.01 | 0.01 | 98 | 1015.6 |
| 20260904140919 | 53 | 148 | 0.0 | 0.0 | 0.00 | 0.01 | 0.01 | 98 | 1015.5 |
| 20260904140419 | 53 | 143 | 0.0 | 0.0 | 0.00 | 0.01 | 0.01 | 98 | 1015.5 |
| 20260904135918 | 53 | 151 | 0.0 | 0.0 | 0.00 | 0.01 | 0.01 | 98 | 1015.4 |
| 20260904135418 | 53 | 153 | 0.0 | 0.0 | 0.00 | 0.01 | 0.01 | 98 | 1015.2 |
| 20260904134914 | 53 | 151 | 0.0 | 0.0 | 0.07 | 0.01 | 0.01 | 98 | 1015.1 |
| 20260904134413 | 53 | 154 | 0.0 | 0.0 | 0.00 | 0.00 | 0.00 | 97 | 1015.1 |
| 20260904133909 | 53 | 151 | 0.0 | 0.0 | 0.00 | 0.00 | 0.00 | 97 | 1015.2 |
| 20260904133403 | 53 | 152 | 0.0 | 0.0 | 0.00 | 0.00 | 0.00 | 97 | 1014.9 |
| 20260904132858 | 53 | 152 | 0.0 | 0.0 | 0.00 | 0.00 | 0.00 | 97 | 1014.9 |
| 20260904132359 | 53 | 152 | 0.0 | 0.0 | 0.00 | 0.00 | 0.00 | 97 | 1015.0 |
| 20260904131858 | 53 | 146 | 0.0 | 0.0 | 0.00 | 0.00 | 0.00 | 97 | 1015.1 |
| 20260904131354 | 53 | 151 | 0.0 | 0.0 | 0.00 | 0.00 | 0.00 | 97 | 1015.1 |
| 20260904130849 | 53 | 152 | 0.0 | 0.0 | 0.00 | 0.00 | 0.00 | 97 | 1015.0 |
| 20260904130348 | 53 | 152 | 0.0 | 0.0 | 0.00 | 0.00 | 0.00 | 97 | 1014.9 |
| 20260904125843 | 53 | 152 | 0.0 | 0.0 | 0.00 | 0.00 | 0.00 | 97 | 1014.9 |
| 20260904125340 | 53 | 152 | 0.0 | 0.0 | 0.00 | 0.00 | 0.00 | 97 | 1014.9 |
| 20260904124838 | 53 | 153 | 0.0 | 0.0 | 0.00 | 0.00 | 0.00 | 97 | 1014.8 |
| 20260904124335 | 52 | 152 | 0.0 | 0.0 | 0.00 | 0.00 | 0.00 | 97 | 1014.9 |
| 20260904123831 | 52 | 149 | 0.0 | 0.0 | 0.00 | 0.00 | 0.00 | 97 | 1014.6 |
| 20260904123326 | 52 | 154 | 0.0 | 0.0 | 0.00 | 0.00 | 0.00 | 97 | 1014.7 |
| 20260904122821 | 52 | 151 | 0.0 | 0.0 | 0.00 | 0.00 | 0.00 | 97 | 1014.8 |
| 20260904122320 | 52 | 153 | 0.0 | 0.0 | 0.00 | 0.00 | 0.00 | 97 | 1014.6 |
| 20260904121815 | 52 | 155 | 0.0 | 0.0 | 0.00 | 0.00 | 0.00 | 97 | 1014.5 |
| 20260904121312 | 52 | 157 | 0.0 | 0.0 | 0.00 | 0.00 | 0.00 | 97 | 1014.4 |
| 20260904120808 | 52 | 155 | 0.0 | 0.0 | 0.00 | 0.00 | 0.00 | 97 | 1014.5 |
| 20260904120258 | 52 | 152 | 0.0 | 0.0 | 0.00 | 0.00 | 0.00 | 97 | 1014.4 |
| 20260904115753 | 52 | 142 | 0.0 | 0.0 | 0.00 | 0.00 | 0.00 | 97 | 1014.7 |
| 20260904115248 | 53 | 156 | 0.0 | 0.0 | 0.00 | 0.00 | 0.00 | 97 | 1014.2 |
| 20260904114742 | 52 | 154 | 0.0 | 0.0 | 0.00 | 0.00 | 0.00 | 97 | 1014.4 |
| 20260904114242 | 53 | 157 | 0.0 | 0.0 | 0.00 | 0.00 | 0.00 | 97 | 1014.4 |
| 20260904113737 | 53 | 154 | 0.0 | 0.0 | 0.00 | 0.00 | 0.00 | 97 | 1014.3 |
| 20260904113236 | 53 | 148 | 0.0 | 0.0 | 0.00 | 0.00 | 0.00 | 97 | 1014.3 |
| 20260904112731 | 53 | 153 | 0.0 | 0.0 | 0.00 | 0.00 | 0.00 | 97 | 1014.3 |
| 20260904112227 | 53 | 153 | 0.0 | 0.0 | 0.00 | 0.00 | 0.00 | 97 | 1014.2 |
| 20260904111722 | 53 | 143 | 0.0 | 0.0 | 0.00 | 0.00 | 0.00 | 97 | 1014.4 |
| 20260904111218 | 53 | 151 | 0.0 | 0.0 | 0.00 | 0.00 | 0.00 | 97 | 1014.2 |
| 20260904110713 | 53 | 153 | 0.0 | 0.0 | 0.00 | 0.00 | 0.00 | 97 | 1014.3 |
| 20260904110212 | 53 | 152 | 0.0 | 0.0 | 0.00 | 0.00 | 0.00 | 97 | 1014.2 |
| 20260904105708 | 53 | 157 | 0.0 | 0.0 | 0.00 | 0.00 | 0.00 | 97 | 1014.1 |
| 20260904105202 | 53 | 153 | 0.0 | 0.0 | 0.00 | 0.00 | 0.00 | 97 | 1014.1 |
| 20260904104658 | 53 | 153 | 0.0 | 0.0 | 0.00 | 0.00 | 0.00 | 97 | 1014.1 |
| 20260904104153 | 53 | 149 | 0.0 | 0.0 | 0.00 | 0.00 | 0.00 | 97 | 1014.0 |
| 20260904103650 | 53 | 154 | 0.0 | 0.0 | 0.00 | 0.00 | 0.00 | 97 | 1014.2 |
| 20260904103145 | 53 | 157 | 0.0 | 0.0 | 0.00 | 0.00 | 0.00 | 97 | 1014.3 |
| 20260904102641 | 53 | 151 | 0.0 | 0.0 | 0.00 | 0.00 | 0.00 | 97 | 1014.2 |
| 20260904102135 | 53 | 140 | 0.0 | 0.0 | 0.00 | 0.00 | 0.00 | 97 | 1013.8 |
| 20260904101632 | 53 | 142 | 0.0 | 0.0 | 0.00 | 0.00 | 0.00 | 97 | 1013.8 |
| 20260904101128 | 53 | 157 | 0.0 | 0.0 | 0.00 | 0.00 | 0.00 | 97 | 1013.9 |
| 20260904100624 | 53 | 154 | 0.0 | 0.0 | 0.00 | 0.00 | 0.00 | 97 | 1013.6 |
| 20260904100118 | 53 | 154 | 0.0 | 0.0 | 0.00 | 0.00 | 0.00 | 97 | 1013.7 |
| 20260904095613 | 53 | 156 | 0.0 | 0.0 | 0.00 | 0.00 | 0.00 | 97 | 1013.8 |
| 20260904095108 | 53 | 155 | 0.0 | 0.0 | 0.00 | 0.00 | 0.00 | 97 | 1013.9 |
| 20260904094608 | 53 | 152 | 0.0 | 0.0 | 0.00 | 0.00 | 0.00 | 97 | 1013.7 |
| 20260904094103 | 53 | 152 | 0.0 | 0.0 | 0.00 | 0.00 | 0.00 | 97 | 1013.8 |
| 20260904093600 | 53 | 152 | 0.0 | 0.0 | 0.00 | 0.00 | 0.00 | 97 | 1013.7 |
| 20260904093054 | 53 | 148 | 0.0 | 0.0 | 0.00 | 0.00 | 0.00 | 97 | 1013.7 |
| 20260904092550 | 53 | 148 | 0.0 | 0.0 | 0.00 | 0.00 | 0.00 | 97 | 1013.7 |
| 20260904092047 | 53 | 148 | 0.0 | 0.0 | 0.00 | 0.00 | 0.00 | 97 | 1013.8 |
| 20260904091543 | 53 | 137 | 0.0 | 0.0 | 0.00 | 0.00 | 0.00 | 97 | 1013.8 |
| 20260904091042 | 53 | 147 | 0.0 | 0.0 | 0.00 | 0.00 | 0.00 | 96 | 1014.0 |
| 20260904090537 | 53 | 149 | 0.0 | 0.0 | 0.00 | 0.00 | 0.00 | 96 | 1013.8 |
| 20260904090033 | 53 | 157 | 0.0 | 0.0 | 0.00 | 0.00 | 0.00 | 96 | 1013.7 |
| 20260904085528 | 53 | 155 | 0.0 | 0.0 | 0.00 | 0.00 | 0.00 | 96 | 1013.9 |
| 20260904085028 | 53 | 152 | 0.0 | 0.0 | 0.00 | 0.00 | 0.00 | 96 | 1013.9 |
| 20260904084524 | 53 | 155 | 0.0 | 0.0 | 0.00 | 0.00 | 0.00 | 96 | 1014.1 |
| 20260904084020 | 54 | 152 | 0.0 | 0.0 | 0.00 | 0.00 | 0.00 | 96 | 1013.9 |
| 20260904083516 | 54 | 152 | 0.0 | 0.0 | 0.00 | 0.00 | 0.00 | 96 | 1013.7 |
| 20260904083011 | 54 | 151 | 0.0 | 0.0 | 0.00 | 0.00 | 0.00 | 96 | 1013.7 |
| 20260904082506 | 54 | 145 | 0.0 | 0.0 | 0.00 | 0.00 | 0.00 | 96 | 1013.7 |
| 20260904082002 | 54 | 151 | 0.0 | 0.0 | 0.00 | 0.00 | 0.00 | 96 | 1013.6 |
| 20260904081457 | 54 | 160 | 0.0 | 0.0 | 0.00 | 0.00 | 0.00 | 96 | 1013.7 |
| 20260904080952 | 54 | 157 | 0.0 | 0.0 | 0.00 | 0.00 | 0.00 | 96 | 1013.6 |
| 20260904080448 | 54 | 149 | 0.0 | 0.0 | 0.00 | 0.00 | 0.00 | 96 | 1013.7 |
| 20260904075943 | 54 | 144 | 0.0 | 0.0 | 0.00 | 0.00 | 0.00 | 96 | 1013.7 |
| 20260904075439 | 55 | 154 | 0.0 | 0.0 | 0.00 | 0.00 | 0.00 | 96 | 1013.4 |
| 20260904074938 | 55 | 157 | 0.0 | 0.0 | 0.00 | 0.00 | 0.00 | 96 | 1013.7 |
| 20260904074434 | 55 | 155 | 0.0 | 0.0 | 0.00 | 0.00 | 0.00 | 96 | 1013.9 |
| 20260904073928 | 55 | 156 | 0.0 | 0.0 | 0.00 | 0.00 | 0.00 | 96 | 1013.8 |
| 20260904073424 | 55 | 152 | 0.0 | 0.0 | 0.00 | 0.00 | 0.00 | 96 | 1013.9 |
| 20260904072920 | 55 | 155 | 0.0 | 0.0 | 0.00 | 0.00 | 0.00 | 96 | 1013.9 |
| 20260904072415 | 55 | 154 | 0.0 | 0.0 | 0.00 | 0.00 | 0.00 | 96 | 1014.1 |